This demonstration page uses our WeatherBlox Daily Observations layout. Learn more.

Left ArrowRight Arrow

Hourly Observations for January 8, 2015

Temp ( °F °C ) Dew Point ( °F °C ) Humidity (%) Winds ( mph kmh ) Pressure ( in mb ) Visibility ( mi km ) Precip ( " mm )
12:51 am 00:51 Clear 45 7.2 27 -2.8 49 49 SSE 16 26 30.31 1026 10 16 N/A
1:51 am 01:51 Clear 44 6.7 27 -2.8 51 51 SSE 18 30 30.32 1027 10 16 N/A
2:51 am 02:51 Clear 43 6.1 26 -3.3 51 51 SSE 15 24 30.30 1026 10 16 N/A
3:51 am 03:51 Clear 41 5 25 -3.9 53 53 SE 13 20 30.29 1026 10 16 N/A
4:51 am 04:51 Clear 40 4.4 25 -3.9 55 55 SE 10 17 30.29 1026 10 16 N/A
5:51 am 05:51 Clear 39 3.9 25 -3.9 57 57 SE 9 15 30.28 1026 10 16 N/A
6:51 am 06:51 Clear 39 3.9 24 -4.4 55 55 SE 12 19 30.29 1026 10 16 N/A
7:51 am 07:51 Sunny 39 3.9 24 -4.4 55 55 SE 10 17 30.31 1026 10 16 N/A
8:51 am 08:51 Sunny 40 4.4 25 -3.9 55 55 SE 10 17 30.31 1026 10 16 N/A
9:51 am 09:51 Cloudy 43 6.1 25 -3.9 49 49 SSE 12 19 30.30 1026 10 16 N/A
10:51 am 10:51 Sunny 45 7.2 25 -3.9 46 46 S 13 20 30.27 1025 10 16 N/A
11:51 am 11:51 Sunny 46 7.8 26 -3.3 46 46 S 14 22 30.23 1024 10 16 N/A
12:51 pm 12:51 Mostly Sunny 45 7.2 26 -3.3 48 48 S 14 22 30.20 1023 10 16 N/A
1:51 pm 13:51 Mostly Cloudy 45 7.2 28 -2.2 52 52 SSE 14 22 30.17 1022 10 16 N/A
2:51 pm 14:51 Mostly Cloudy 45 7.2 29 -1.7 54 54 SSE 9 15 30.17 1022 10 16 N/A
3:51 pm 15:51 Mostly Cloudy 45 7.2 31 -0.6 58 58 SSE 10 17 30.17 1022 10 16 N/A
4:51 pm 16:51 Cloudy 44 6.7 31 -0.6 60 60 SSE 9 15 30.16 1021 10 16 N/A
5:51 pm 17:51 Mostly Clear 42 5.6 32 undefined 68 68 SSE 8 13 30.15 1021 10 16 N/A
6:51 pm 18:51 Mostly Clear 41 5 33 0.6 73 73 SE 6 9 30.15 1021 10 16 N/A
7:51 pm 19:51 Partly Cloudy 41 5 33 0.6 73 73 ESE 5 7 30.15 1021 10 16 N/A
8:51 pm 20:51 Mostly Clear 42 5.6 34 1.1 73 73 ESE 7 11 30.14 1021 10 16 N/A
9:51 pm 21:51 Cloudy 42 5.6 34 1.1 73 73 ESE 7 11 30.13 1020 10 16 N/A
10:51 pm 22:51 Cloudy 43 6.1 35 1.7 74 74 E 8 13 30.12 1020 10 16 N/A
11:51 pm 23:51 Cloudy 43 6.1 35 1.7 74 74 ESE 6 9 30.12 1020 10 16 N/A

Powered by AerisWeather